Time,TemperatureF,DewpointF,PressureIn,WindDirection,WindDirectionDegrees,WindSpeedMPH,WindSpeedGustMPH,Humidity,HourlyPrecipIn,Conditions,Clouds,dailyrainin,SoftwareType,DateUTC
2013-01-18 10:08:00,36.6,29.4,30.44,SW,222,14.0,14.0,75,0.00,CLR,,0.00,WeatherDisplay:10.37,2013-01-18 15:08:00,
2013-01-18 10:13:00,36.6,29.1,30.45,WSW,242,9.2,9.2,74,0.00,CLR,,0.00,WeatherDisplay:10.37,2013-01-18 15:13:00,
2013-01-18 10:18:00,36.6,28.4,30.44,West,269,10.4,10.4,72,0.00,CLR,,0.00,WeatherDisplay:10.37,2013-01-18 15:18:00,
2013-01-18 10:23:00,36.6,28.4,30.44,SW,231,9.0,9.0,72,0.00,CLR,,0.00,WeatherDisplay:10.37,2013-01-18 15:23:00,
2013-01-18 10:28:00,36.6,27.4,30.44,SW,228,9.2,9.2,69,0.00,CLR,,0.00,WeatherDisplay:10.37,2013-01-18 15:28:00,
2013-01-18 10:33:00,36.6,27.4,30.44,WSW,239,14.0,14.0,69,0.00,CLR,,0.00,WeatherDisplay:10.37,2013-01-18 15:33:00,
2013-01-18 10:38:00,36.6,27.0,30.44,West,274,7.0,7.0,68,0.00,CLR,,0.00,WeatherDisplay:10.37,2013-01-18 15:38:00,
2013-01-18 10:43:00,36.6,25.9,30.44,SW,224,15.0,15.0,65,0.00,CLR,,0.00,WeatherDisplay:10.37,2013-01-18 15:43:00,
2013-01-18 10:48:00,36.6,25.9,30.44,SW,222,11.5,11.5,65,0.00,CLR,,0.00,WeatherDisplay:10.37,2013-01-18 15:48:00,
2013-01-18 10:53:00,36.6,25.6,30.44,SW,215,8.1,8.1,64,0.00,CLR,,0.00,WeatherDisplay:10.37,2013-01-18 15:53:00,
2013-01-18 10:58:00,36.6,24.4,30.44,SW,232,12.7,12.7,61,0.00,CLR,,0.00,WeatherDisplay:10.37,2013-01-18 15:58:00,
2013-01-18 11:03:00,36.6,24.0,30.44,SSW,203,11.5,11.5,60,0.00,CLR,,0.00,WeatherDisplay:10.37,2013-01-18 16:03:00,
2013-01-18 11:08:00,36.6,24.4,30.44,West,266,11.5,11.5,61,0.00,CLR,,0.00,WeatherDisplay:10.37,2013-01-18 16:08:00,
2013-01-18 11:13:00,36.6,24.4,30.44,SSW,210,8.1,8.1,61,0.00,CLR,,0.00,WeatherDisplay:10.37,2013-01-18 16:13:00,
2013-01-18 11:18:00,36.6,24.4,30.43,West,263,11.5,11.5,61,0.00,CLR,,0.00,WeatherDisplay:10.37,2013-01-18 16:18:00,
2013-01-18 11:23:00,36.6,24.0,30.43,SW,228,11.5,11.5,60,0.00,CLR,,0.00,WeatherDisplay:10.37,2013-01-18 16:23:00,
2013-01-18 11:28:00,36.6,23.2,30.43,WSW,239,19.6,19.6,58,0.00,CLR,,0.00,WeatherDisplay:10.37,2013-01-18 16:28:00,
2013-01-18 11:33:00,36.6,23.2,30.43,SSW,201,11.5,11.5,58,0.00,CLR,,0.00,WeatherDisplay:10.37,2013-01-18 16:33:00,
2013-01-18 11:38:00,36.6,22.8,30.42,SSW,197,11.5,11.5,57,0.00,CLR,,0.00,WeatherDisplay:10.37,2013-01-18 16:38:00,
2013-01-18 11:43:00,36.6,23.2,30.42,West,271,6.9,6.9,58,0.00,CLR,,0.00,WeatherDisplay:10.37,2013-01-18 16:43:00,
2013-01-18 11:48:00,36.6,23.2,30.42,WNW,293,6.9,6.9,58,0.00,CLR,,0.00,WeatherDisplay:10.37,2013-01-18 16:48:00,
2013-01-18 11:53:00,36.6,23.6,30.42,WSW,249,5.0,5.0,59,0.00,CLR,,0.00,WeatherDisplay:10.37,2013-01-18 16:53:00,
2013-01-18 11:58:00,36.6,22.4,30.42,West,270,9.2,9.2,56,0.00,CLR,,0.00,WeatherDisplay:10.37,2013-01-18 16:58:00,
2013-01-18 12:03:00,36.6,22.4,30.42,WSW,245,7.0,7.0,56,0.00,CLR,,0.00,WeatherDisplay:10.37,2013-01-18 17:03:00,
2013-01-18 12:08:00,36.6,22.4,30.42,SW,229,11.5,11.5,56,0.00,CLR,,0.00,WeatherDisplay:10.37,2013-01-18 17:08:00,
2013-01-18 12:13:00,36.6,21.9,30.42,West,274,11.5,11.5,55,0.00,CLR,,0.00,WeatherDisplay:10.37,2013-01-18 17:13:00,
2013-01-18 12:18:00,36.6,22.4,30.41,SW,224,11.5,11.5,56,0.00,CLR,,0.00,WeatherDisplay:10.37,2013-01-18 17:18:00,
2013-01-18 12:23:00,36.6,21.9,30.41,SW,219,11.5,11.5,55,0.00,CLR,,0.00,WeatherDisplay:10.37,2013-01-18 17:23:00,
2013-01-18 12:28:00,36.6,21.5,30.41,West,271,11.5,11.5,54,0.00,CLR,,0.00,WeatherDisplay:10.37,2013-01-18 17:28:00,
2013-01-18 12:33:00,36.6,22.4,30.41,West,272,5.8,5.8,56,0.00,CLR,,0.00,WeatherDisplay:10.37,2013-01-18 17:33:00,
2013-01-18 12:38:00,36.6,20.2,30.41,West,262,9.2,9.2,51,0.00,CLR,,0.00,WeatherDisplay:10.37,2013-01-18 17:38:00,
2013-01-18 12:43:00,36.6,20.2,30.40,West,280,5.8,5.8,51,0.00,CLR,,0.00,WeatherDisplay:10.37,2013-01-18 17:43:00,
2013-01-18 12:48:00,36.6,17.2,30.40,SW,222,10.4,10.4,45,0.00,CLR,,0.00,WeatherDisplay:10.37,2013-01-18 17:48:00,
2013-01-18 12:53:00,36.6,18.2,30.40,SW,236,10.4,10.4,47,0.00,CLR,,0.00,WeatherDisplay:10.37,2013-01-18 17:53:00,
2013-01-18 12:58:00,36.6,19.7,30.41,SW,217,12.7,12.7,50,0.00,CLR,,0.00,WeatherDisplay:10.37,2013-01-18 17:58:00,
2013-01-18 13:03:00,36.6,20.2,30.41,SW,219,10.4,10.4,51,0.00,CLR,,0.00,WeatherDisplay:10.37,2013-01-18 18:03:00,
2013-01-18 13:08:00,36.6,20.6,30.41,WNW,295,9.2,9.2,52,0.00,CLR,,0.00,WeatherDisplay:10.37,2013-01-18 18:08:00,
2013-01-18 13:13:00,36.6,20.2,30.41,WSW,250,11.5,11.5,51,0.00,CLR,,0.00,WeatherDisplay:10.37,2013-01-18 18:13:00,
2013-01-18 13:18:00,36.6,21.5,30.41,WSW,250,8.1,8.1,54,0.00,CLR,,0.00,WeatherDisplay:10.37,2013-01-18 18:18:00,
2013-01-18 13:23:00,36.6,21.5,30.40,SSW,195,6.0,6.0,54,0.00,CLR,,0.00,WeatherDisplay:10.37,2013-01-18 18:23:00,
2013-01-18 13:28:00,36.6,20.6,30.40,WSW,250,6.0,6.0,52,0.00,CLR,,0.00,WeatherDisplay:10.37,2013-01-18 18:28:00,
2013-01-18 13:33:00,36.6,20.6,30.40,SW,235,5.0,5.0,52,0.00,CLR,,0.00,WeatherDisplay:10.37,2013-01-18 18:33:00,
2013-01-18 13:38:00,36.6,20.6,30.40,West,274,4.6,4.6,52,0.00,CLR,,0.00,WeatherDisplay:10.37,2013-01-18 18:38:00,
2013-01-18 13:43:00,36.6,20.6,30.39,West,267,4.6,4.6,52,0.00,CLR,,0.00,WeatherDisplay:10.37,2013-01-18 18:43:00,
2013-01-18 13:48:00,36.6,19.7,30.40,SW,217,10.4,10.4,50,0.00,CLR,,0.00,WeatherDisplay:10.37,2013-01-18 18:48:00,
2013-01-18 13:53:00,36.6,19.7,30.39,SW,222,6.9,6.9,50,0.00,CLR,,0.00,WeatherDisplay:10.37,2013-01-18 18:53:00,
2013-01-18 13:58:00,36.6,20.2,30.39,SSW,210,8.1,8.1,51,0.00,CLR,,0.00,WeatherDisplay:10.37,2013-01-18 18:58:00,
2013-01-18 14:03:00,36.6,20.2,30.39,SSW,205,6.9,6.9,51,0.00,CLR,,0.00,WeatherDisplay:10.37,2013-01-18 19:03:00,
2013-01-18 14:08:00,36.6,20.2,30.39,SW,222,11.5,11.5,51,0.00,CLR,,0.00,WeatherDisplay:10.37,2013-01-18 19:08:00,
2013-01-18 14:13:00,36.6,20.6,30.39,SSW,210,8.1,8.1,52,0.00,CLR,,0.00,WeatherDisplay:10.37,2013-01-18 19:13:00,
2013-01-18 14:18:00,36.6,21.1,30.38,SW,233,5.8,5.8,53,0.00,CLR,,0.00,WeatherDisplay:10.37,2013-01-18 19:18:00,
2013-01-18 14:23:00,36.6,20.6,30.38,SSE,158,12.7,12.7,52,0.00,CLR,,0.00,WeatherDisplay:10.37,2013-01-18 19:23:00,
2013-01-18 14:28:00,36.6,21.1,30.38,WSW,242,11.5,11.5,53,0.00,CLR,,0.00,WeatherDisplay:10.37,2013-01-18 19:28:00,
2013-01-18 14:33:00,36.6,21.5,30.37,South,189,3.5,3.5,54,0.00,CLR,,0.00,WeatherDisplay:10.37,2013-01-18 19:33:00,
2013-01-18 14:38:00,36.6,21.1,30.37,SSW,195,6.0,6.2,53,0.00,CLR,,0.00,WeatherDisplay:10.37,2013-01-18 19:38:00,
2013-01-18 14:43:00,36.6,21.1,30.37,WSW,254,10.4,10.4,53,0.00,CLR,,0.00,WeatherDisplay:10.37,2013-01-18 19:43:00,
2013-01-18 14:48:00,36.6,21.5,30.37,WNW,283,5.8,5.8,54,0.00,CLR,,0.00,WeatherDisplay:10.37,2013-01-18 19:48:00,
2013-01-18 14:53:00,36.6,22.4,30.37,West,277,4.0,4.0,56,0.00,CLR,,0.00,WeatherDisplay:10.37,2013-01-18 19:53:00,
2013-01-18 14:58:00,36.6,21.9,30.37,West,278,6.0,6.0,55,0.00,CLR,,0.00,WeatherDisplay:10.37,2013-01-18 19:58:00,
2013-01-18 15:03:00,36.6,21.5,30.36,SSW,205,6.9,6.9,54,0.00,CLR,,0.00,WeatherDisplay:10.37,2013-01-18 20:03:00,
2013-01-18 15:08:00,36.6,21.1,30.36,SSW,208,11.5,11.5,53,0.00,CLR,,0.00,WeatherDisplay:10.37,2013-01-18 20:08:00,
2013-01-18 15:13:00,36.6,21.1,30.36,SW,225,5.0,5.0,53,0.00,CLR,,0.00,WeatherDisplay:10.37,2013-01-18 20:13:00,
2013-01-18 15:18:00,36.6,21.9,30.36,SW,219,4.0,4.0,55,0.00,CLR,,0.00,WeatherDisplay:10.37,2013-01-18 20:18:00,
2013-01-18 15:23:00,36.6,21.1,30.35,SW,228,6.9,6.9,53,0.00,CLR,,0.00,WeatherDisplay:10.37,2013-01-18 20:23:00,
2013-01-18 15:28:00,36.6,21.5,30.35,WSW,245,8.0,8.0,54,0.00,CLR,,0.00,WeatherDisplay:10.37,2013-01-18 20:28:00,
2013-01-18 15:33:00,36.6,21.5,30.35,South,184,9.2,9.2,54,0.00,CLR,,0.00,WeatherDisplay:10.37,2013-01-18 20:33:00,
2013-01-18 15:39:00,36.6,21.5,30.35,SSW,203,8.1,8.1,54,0.00,CLR,,0.00,WeatherDisplay:10.37,2013-01-18 20:39:00,
2013-01-18 15:44:00,36.6,22.4,30.35,SSE,155,3.5,3.5,56,0.00,CLR,,0.00,WeatherDisplay:10.37,2013-01-18 20:44:00,
2013-01-18 15:49:00,36.6,22.4,30.35,South,169,4.6,4.6,56,0.00,CLR,,0.00,WeatherDisplay:10.37,2013-01-18 20:49:00,
2013-01-18 15:54:00,36.6,22.8,30.34,SW,217,6.9,6.9,57,0.00,CLR,,0.00,WeatherDisplay:10.37,2013-01-18 20:54:00,
2013-01-18 15:59:00,32.5,19.7,30.34,SW,228,8.1,8.1,59,0.00,CLR,,0.00,WeatherDisplay:10.37,2013-01-18 20:59:00,
2013-01-18 16:04:00,32.5,20.5,30.34,SSW,195,8.1,8.1,61,0.00,CLR,,0.00,WeatherDisplay:10.37,2013-01-18 21:04:00,
2013-01-18 16:48:00,32.5,20.1,30.32,SSW,195,8.1,0.0,60,0.00,CLR,,0.00,WeatherDisplay:10.37,2013-01-18 21:48:00,
2013-01-18 16:53:00,32.5,20.5,30.32,SW,229,1.2,1.2,61,0.00,CLR,,0.00,WeatherDisplay:10.37,2013-01-18 21:53:00,
2013-01-18 16:58:00,32.5,20.5,30.32,SW,214,1.2,1.2,61,0.00,CLR,,0.00,WeatherDisplay:10.37,2013-01-18 21:58:00,
2013-01-18 17:03:00,32.5,20.9,30.32,SE,133,0.0,0.0,62,0.00,CLR,,0.00,WeatherDisplay:10.37,2013-01-18 22:03:00,
2013-01-18 17:08:00,32.5,21.3,30.31,SSW,205,1.2,0.0,63,0.00,CLR,,0.00,WeatherDisplay:10.37,2013-01-18 22:08:00,
2013-01-18 17:13:00,32.5,21.3,30.32,SSE,148,0.0,0.0,63,0.00,CLR,,0.00,WeatherDisplay:10.37,2013-01-18 22:13:00,
2013-01-18 17:18:00,32.5,21.3,30.31,South,190,0.0,0.0,63,0.00,CLR,,0.00,WeatherDisplay:10.37,2013-01-18 22:18:00,
2013-01-18 17:23:00,32.5,21.3,30.31,ESE,105,0.0,0.0,63,0.00,CLR,,0.00,WeatherDisplay:10.37,2013-01-18 22:23:00,
2013-01-18 17:28:00,32.5,21.3,30.31,SSE,152,1.2,1.2,63,0.00,CLR,,0.00,WeatherDisplay:10.37,2013-01-18 22:28:00,
2013-01-18 17:33:00,32.5,21.3,30.31,South,191,0.0,0.0,63,0.00,CLR,,0.00,WeatherDisplay:10.37,2013-01-18 22:33:00,
2013-01-18 17:38:00,32.5,21.3,30.31,South,186,2.3,2.3,63,0.00,CLR,,0.00,WeatherDisplay:10.37,2013-01-18 22:38:00,
2013-01-18 17:43:00,32.5,21.3,30.30,SE,140,2.3,2.3,63,0.00,CLR,,0.00,WeatherDisplay:10.37,2013-01-18 22:43:00,
2013-01-18 17:48:00,32.5,21.3,30.30,South,191,2.3,2.3,63,0.00,CLR,,0.00,WeatherDisplay:10.37,2013-01-18 22:48:00,
2013-01-18 17:53:00,32.5,21.3,30.30,SW,224,0.0,0.0,63,0.00,CLR,,0.00,WeatherDisplay:10.37,2013-01-18 22:53:00,
2013-01-18 17:58:00,32.5,21.3,30.30,South,174,0.0,0.0,63,0.00,CLR,,0.00,WeatherDisplay:10.37,2013-01-18 22:58:00,
2013-01-18 18:03:00,32.5,20.9,30.29,SSW,200,3.5,3.5,62,0.00,CLR,,0.00,WeatherDisplay:10.37,2013-01-18 23:03:00,
2013-01-18 18:08:00,32.5,20.9,30.29,NE,47,2.3,2.3,62,0.00,CLR,,0.00,WeatherDisplay:10.37,2013-01-18 23:08:00,
2013-01-18 18:13:00,32.5,20.9,30.29,South,187,2.3,2.3,62,0.00,CLR,,0.00,WeatherDisplay:10.37,2013-01-18 23:13:00,
2013-01-18 18:18:00,32.5,20.5,30.29,SSW,201,1.2,1.2,61,0.00,CLR,,0.00,WeatherDisplay:10.37,2013-01-18 23:18:00,
2013-01-18 18:23:00,32.5,20.9,30.29,SSW,207,1.2,1.2,62,0.00,CLR,,0.00,WeatherDisplay:10.37,2013-01-18 23:23:00,
2013-01-18 18:28:00,32.5,20.5,30.29,SE,136,0.0,0.0,61,0.00,CLR,,0.00,WeatherDisplay:10.37,2013-01-18 23:28:00,
2013-01-18 18:33:00,32.5,20.9,30.29,SE,127,2.0,2.0,62,0.00,CLR,,0.00,WeatherDisplay:10.37,2013-01-18 23:33:00,
2013-01-18 18:38:00,32.5,20.9,30.29,East,82,0.0,0.0,62,0.00,CLR,,0.00,WeatherDisplay:10.37,2013-01-18 23:38:00,
2013-01-18 18:43:00,32.5,20.9,30.29,SSE,161,1.2,0.0,62,0.00,CLR,,0.00,WeatherDisplay:10.37,2013-01-18 23:43:00,
2013-01-18 18:48:00,32.5,20.9,30.28,South,172,2.3,2.3,62,0.00,CLR,,0.00,WeatherDisplay:10.37,2013-01-18 23:48:00,
2013-01-18 18:53:00,32.5,20.5,30.28,SSE,155,2.0,2.0,61,0.00,CLR,,0.00,WeatherDisplay:10.37,2013-01-18 23:53:00,
2013-01-18 18:58:00,32.5,20.5,30.28,SE,133,0.0,0.0,61,0.00,CLR,,0.00,WeatherDisplay:10.37,2013-01-18 23:58:00,
2013-01-18 19:03:00,32.5,20.5,30.28,ENE,75,2.3,2.3,61,0.00,CLR,,0.00,WeatherDisplay:10.37,2013-01-19 00:03:00,
2013-01-18 19:08:00,32.5,20.5,30.28,SE,130,0.0,0.0,61,0.00,CLR,,0.00,WeatherDisplay:10.37,2013-01-19 00:08:00,
2013-01-18 19:13:00,32.5,20.5,30.27,SE,136,1.2,1.2,61,0.00,CLR,,0.00,WeatherDisplay:10.37,2013-01-19 00:13:00,
2013-01-18 19:18:00,32.5,20.5,30.27,ESE,102,2.3,2.3,61,0.00,CLR,,0.00,WeatherDisplay:10.37,2013-01-19 00:18:00,
2013-01-18 19:23:00,32.5,20.1,30.26,ESE,102,3.5,3.5,60,0.00,CLR,,0.00,WeatherDisplay:10.37,2013-01-19 00:23:00,
2013-01-18 19:28:00,32.5,20.1,30.26,NE,46,2.0,2.0,60,0.00,CLR,,0.00,WeatherDisplay:10.37,2013-01-19 00:28:00,
2013-01-18 19:33:00,32.5,20.1,30.26,SE,129,2.3,2.3,60,0.00,CLR,,0.00,WeatherDisplay:10.37,2013-01-19 00:33:00,
2013-01-18 19:38:00,32.5,20.1,30.25,ESE,121,3.5,3.5,60,0.00,CLR,,0.00,WeatherDisplay:10.37,2013-01-19 00:38:00,
2013-01-18 19:43:00,32.5,19.7,30.25,SSW,200,3.5,3.5,59,0.00,CLR,,0.00,WeatherDisplay:10.37,2013-01-19 00:43:00,
2013-01-18 19:48:00,32.5,19.7,30.25,SSW,208,2.3,2.3,59,0.00,CLR,,0.00,WeatherDisplay:10.37,2013-01-19 00:48:00,
2013-01-18 19:53:00,32.5,19.7,30.24,SE,141,2.0,2.0,59,0.00,CLR,,0.00,WeatherDisplay:10.37,2013-01-19 00:53:00,
2013-01-18 19:58:00,32.5,19.7,30.23,ESE,116,2.3,2.3,59,0.00,CLR,,0.00,WeatherDisplay:10.37,2013-01-19 00:58:00,
2013-01-18 20:03:00,32.5,19.7,30.23,ENE,68,3.5,3.5,59,0.00,CLR,,0.00,WeatherDisplay:10.37,2013-01-19 01:03:00,
2013-01-18 20:08:00,32.5,19.3,30.22,SSE,165,3.0,3.0,58,0.00,CLR,,0.00,WeatherDisplay:10.37,2013-01-19 01:08:00,
2013-01-18 20:13:00,32.5,18.9,30.22,ESE,113,3.5,3.5,57,0.00,CLR,,0.00,WeatherDisplay:10.37,2013-01-19 01:13:00,
2013-01-18 20:18:00,32.5,19.3,30.21,South,175,3.5,3.5,58,0.00,CLR,,0.00,WeatherDisplay:10.37,2013-01-19 01:18:00,
2013-01-18 20:23:00,32.5,18.9,30.20,SSE,158,3.5,3.5,57,0.00,CLR,,0.00,WeatherDisplay:10.37,2013-01-19 01:23:00,
2013-01-18 20:28:00,32.5,18.9,30.20,ENE,65,4.6,4.6,57,0.00,CLR,,0.00,WeatherDisplay:10.37,2013-01-19 01:28:00,
2013-01-18 20:33:00,32.5,18.9,30.20,ESE,105,4.6,4.6,57,0.00,CLR,,0.00,WeatherDisplay:10.37,2013-01-19 01:33:00,
2013-01-18 20:38:00,32.5,18.9,30.19,SE,126,3.5,3.5,57,0.00,CLR,,0.00,WeatherDisplay:10.37,2013-01-19 01:38:00,
2013-01-18 20:43:00,32.5,18.9,30.18,East,98,6.9,6.9,57,0.00,CLR,,0.00,WeatherDisplay:10.37,2013-01-19 01:43:00,
2013-01-18 20:48:00,32.5,18.9,30.18,ESE,106,3.5,3.5,57,0.00,CLR,,0.00,WeatherDisplay:10.37,2013-01-19 01:48:00,
2013-01-18 20:53:00,32.5,18.9,30.17,SSE,150,4.6,4.6,57,0.00,CLR,,0.00,WeatherDisplay:10.37,2013-01-19 01:53:00,
2013-01-18 20:58:00,32.5,18.9,30.17,South,190,3.5,3.5,57,0.00,CLR,,0.00,WeatherDisplay:10.37,2013-01-19 01:58:00,
2013-01-18 21:03:00,32.5,18.9,30.17,SW,231,4.6,4.6,57,0.00,CLR,,0.00,WeatherDisplay:10.37,2013-01-19 02:03:00,
2013-01-18 21:08:00,32.5,18.9,30.16,SW,215,4.6,4.6,57,0.00,CLR,,0.00,WeatherDisplay:10.37,2013-01-19 02:08:00,
2013-01-18 21:13:00,32.5,18.5,30.16,South,177,4.0,4.0,56,0.00,CLR,,0.00,WeatherDisplay:10.37,2013-01-19 02:13:00,
2013-01-18 21:18:00,32.5,18.5,30.15,South,171,3.5,3.5,56,0.00,CLR,,0.00,WeatherDisplay:10.37,2013-01-19 02:18:00,
2013-01-18 21:23:00,32.5,18.5,30.14,SSE,152,3.5,3.5,56,0.00,CLR,,0.00,WeatherDisplay:10.37,2013-01-19 02:23:00,
2013-01-18 21:28:00,32.5,18.1,30.14,SSW,203,5.8,5.8,55,0.00,CLR,,0.00,WeatherDisplay:10.37,2013-01-19 02:28:00,
2013-01-18 21:33:00,32.5,18.5,30.13,SSW,200,4.6,4.6,56,0.00,CLR,,0.00,WeatherDisplay:10.37,2013-01-19 02:33:00,
2013-01-18 21:38:00,32.5,18.5,30.13,SSE,149,3.5,3.5,56,0.00,CLR,,0.00,WeatherDisplay:10.37,2013-01-19 02:38:00,
2013-01-18 21:43:00,32.5,18.5,30.13,SSE,165,3.5,3.5,56,0.00,CLR,,0.00,WeatherDisplay:10.37,2013-01-19 02:43:00,
2013-01-18 21:48:00,32.5,18.5,30.13,SW,224,5.8,5.8,56,0.00,CLR,,0.00,WeatherDisplay:10.37,2013-01-19 02:48:00,
2013-01-18 21:53:00,32.5,18.1,30.12,SSW,194,4.6,4.6,55,0.00,CLR,,0.00,WeatherDisplay:10.37,2013-01-19 02:53:00,
2013-01-18 21:58:00,32.5,18.5,30.11,SSW,211,3.5,3.5,56,0.00,CLR,,0.00,WeatherDisplay:10.37,2013-01-19 02:58:00,
2013-01-18 22:03:00,32.5,18.5,30.11,SW,217,3.5,3.5,56,0.00,CLR,,0.00,WeatherDisplay:10.37,2013-01-19 03:03:00,
2013-01-18 22:08:00,32.5,18.5,30.11,SSE,164,4.6,4.6,56,0.00,CLR,,0.00,WeatherDisplay:10.37,2013-01-19 03:08:00,
2013-01-18 22:13:00,32.5,18.9,30.11,SSE,150,2.3,2.3,57,0.00,CLR,,0.00,WeatherDisplay:10.37,2013-01-19 03:13:00,
2013-01-18 22:18:00,32.5,18.5,30.10,WSW,239,4.6,4.6,56,0.00,CLR,,0.00,WeatherDisplay:10.37,2013-01-19 03:18:00,
2013-01-18 22:23:00,32.5,18.5,30.11,East,98,6.9,6.9,56,0.00,CLR,,0.00,WeatherDisplay:10.37,2013-01-19 03:23:00,
2013-01-18 22:28:00,32.5,18.1,30.10,SSW,200,5.8,5.8,55,0.00,CLR,,0.00,WeatherDisplay:10.37,2013-01-19 03:28:00,
2013-01-18 22:33:00,32.5,18.5,30.11,South,177,3.5,3.5,56,0.00,CLR,,0.00,WeatherDisplay:10.37,2013-01-19 03:33:00,
2013-01-18 22:38:00,32.5,18.1,30.11,South,188,0.0,0.0,55,0.00,CLR,,0.00,WeatherDisplay:10.37,2013-01-19 03:38:00,
2013-01-18 22:43:00,32.5,18.5,30.11,SSE,161,1.2,1.2,56,0.00,CLR,,0.00,WeatherDisplay:10.37,2013-01-19 03:43:00,
2013-01-18 22:48:00,32.5,18.9,30.10,SSW,210,1.2,1.2,57,0.00,CLR,,0.00,WeatherDisplay:10.37,2013-01-19 03:48:00,
2013-01-18 22:53:00,32.5,18.5,30.10,WSW,245,3.5,3.5,56,0.00,CLR,,0.00,WeatherDisplay:10.37,2013-01-19 03:53:00,
2013-01-18 22:58:00,32.5,18.5,30.10,SW,222,8.1,8.1,56,0.00,CLR,,0.00,WeatherDisplay:10.37,2013-01-19 03:58:00,
2013-01-18 23:03:00,32.5,18.1,30.11,WSW,242,8.1,8.1,55,0.00,CLR,,0.00,WeatherDisplay:10.37,2013-01-19 04:03:00,
2013-01-18 23:08:00,32.5,18.5,30.10,SSE,147,3.5,3.5,56,0.00,CLR,,0.00,WeatherDisplay:10.37,2013-01-19 04:08:00,
2013-01-18 23:13:00,32.5,17.7,30.10,SW,215,8.1,8.1,54,0.00,CLR,,0.00,WeatherDisplay:10.37,2013-01-19 04:13:00,
2013-01-18 23:18:00,32.5,18.1,30.10,SW,214,4.6,4.6,55,0.00,CLR,,0.00,WeatherDisplay:10.37,2013-01-19 04:18:00,
2013-01-18 23:23:00,32.5,17.7,30.09,SSW,208,9.2,9.2,54,0.00,CLR,,0.00,WeatherDisplay:10.37,2013-01-19 04:23:00,
2013-01-18 23:28:00,32.5,17.2,30.09,South,186,10.4,10.4,53,0.00,CLR,,0.00,WeatherDisplay:10.37,2013-01-19 04:28:00,
2013-01-18 23:33:00,32.5,17.7,30.08,SW,226,4.6,4.6,54,0.00,CLR,,0.00,WeatherDisplay:10.37,2013-01-19 04:33:00,
2013-01-18 23:38:00,32.5,17.2,30.07,SSW,195,5.8,5.8,53,0.00,CLR,,0.00,WeatherDisplay:10.37,2013-01-19 04:38:00,
2013-01-18 23:43:00,32.5,17.7,30.07,SW,214,6.9,6.9,54,0.00,CLR,,0.00,WeatherDisplay:10.37,2013-01-19 04:43:00,
2013-01-18 23:48:00,32.5,17.2,30.06,South,177,4.6,4.6,53,0.00,CLR,,0.00,WeatherDisplay:10.37,2013-01-19 04:48:00,
2013-01-18 23:53:00,32.5,17.2,30.06,SW,217,3.5,3.5,53,0.00,CLR,,0.00,WeatherDisplay:10.37,2013-01-19 04:53:00,
2013-01-18 23:58:00,32.5,17.2,30.06,SSW,212,7.0,7.0,53,0.00,CLR,,0.00,WeatherDisplay:10.37,2013-01-19 04:58:00,